Date String (YYYY-MM-DD hh:mm:ss) UTC,Instrument flags,Ambient pressure (hPa),Sample flow (lpm),Bypass flow (lpm),Sample temperature (°C),Ambient temperature (°C),ASC tube jacket temperature (°C),LED temperature (°C),Box temperature (°C),Sample RH (%),Span deviation,Mass concentration (μg/m³),Mass concentration (μg/m³),Mass concentration (μg/m³)
DateTimeUTC,F1_M11,P_M11,Q1_M11,Q2_M11,T1_M11,T2_M11,T3_M11,T4_M11,T5_M11,U1_M11,ZSPAN_M11,X0_M11,X2_M11,X1_M11
2023-01-03 15:00:00,,0816.5,5.06,0.00,22.5,21.4,00.0,31.4,24.2,11.4,0000.0,0001.43,0001.25,0001.18
2023-01-03 15:01:00,,0816.4,5.00,0.00,22.5,21.2,00.0,31.4,24.2,11.4,0000.0,0001.43,0001.25,0001.18
2023-01-03 15:02:00,,0816.5,5.00,0.00,22.5,21.1,00.0,31.4,24.1,11.3,0000.0,0001.93,0001.28,0001.19
2023-01-03 15:03:00,,0816.4,4.97,0.00,22.4,21.0,00.0,31.3,24.1,11.3,0000.0,0002.91,0001.32,0001.23
2023-01-03 15:04:00,,0816.4,5.00,0.00,22.4,20.9,00.0,31.3,24.0,11.2,0000.0,0002.98,0001.36,0001.26
2023-01-03 15:05:00,,0816.5,4.99,0.00,22.4,20.9,00.0,31.3,24.0,11.2,0000.0,0003.03,0001.39,0001.27
2023-01-03 15:06:00,,0816.4,5.01,0.00,22.3,20.8,00.0,31.3,24.0,11.2,0000.0,0003.76,0001.43,0001.29
2023-01-03 15:07:00,,0816.5,4.96,0.00,22.3,20.8,00.0,31.3,23.9,11.2,0000.0,0003.94,0001.48,0001.33
2023-01-03 15:08:00,,0816.4,4.97,0.00,22.3,21.0,00.0,31.3,24.0,11.2,0000.0,0003.98,0001.51,0001.35
2023-01-03 15:09:00,,0816.5,5.03,0.00,22.4,22.1,00.0,31.2,24.3,11.2,0000.0,0003.99,0001.52,0001.36
2023-01-03 15:10:00,,0816.4,5.01,0.00,22.5,23.0,00.0,31.2,24.5,11.1,0000.0,0004.01,0001.53,0001.36
2023-01-03 15:11:00,,0816.5,5.00,0.00,22.6,22.8,00.0,31.3,24.6,11.1,0000.0,0003.98,0001.51,0001.37
2023-01-03 15:12:00,,0816.4,4.99,0.00,22.6,22.4,00.0,31.4,24.5,11.1,0000.0,0004.08,0001.53,0001.38
2023-01-03 15:13:00,,0816.4,4.97,0.00,22.6,22.0,00.0,31.4,24.4,11.1,0000.0,0003.85,0001.50,0001.36
2023-01-03 15:14:00,,0816.5,4.99,0.00,22.6,21.7,00.0,31.4,24.3,11.0,0000.0,0002.57,0001.46,0001.34
2023-01-03 15:15:00,,0816.6,5.01,0.00,22.6,21.6,00.0,31.4,24.3,11.0,0000.0,0002.50,0001.42,0001.31
2023-01-03 15:16:00,,0816.5,5.07,0.00,22.6,21.5,00.0,31.4,24.3,11.0,0000.0,0002.47,0001.41,0001.31
2023-01-03 15:17:00,,0816.5,4.99,0.00,22.6,21.5,00.0,31.4,24.3,11.0,0000.0,0001.90,0001.38,0001.30
2023-01-03 15:18:00,,0816.5,4.96,0.00,22.6,21.5,00.0,31.4,24.3,11.0,0000.0,0001.60,0001.35,0001.28
2023-01-03 15:19:00,,0816.5,5.04,0.00,22.6,21.4,00.0,31.4,24.2,10.9,0000.0,0001.58,0001.33,0001.27
2023-01-03 15:20:00,,0816.5,5.05,0.00,22.6,21.4,00.0,31.4,24.2,10.6,0000.0,0001.56,0001.30,0001.24
2023-01-03 15:21:00,,0816.5,4.99,0.00,22.6,21.4,00.0,31.4,24.2,10.7,0000.0,0001.60,0001.29,0001.23
2023-01-03 15:22:00,,0816.5,4.98,0.00,22.6,21.4,00.0,31.4,24.2,10.8,0000.0,0001.85,0001.35,0001.23
2023-01-03 15:23:00,,0816.6,4.98,0.00,22.6,21.4,00.0,31.4,24.2,10.9,0000.0,0001.81,0001.35,0001.24
2023-01-03 15:24:00,,0817.0,4.98,0.00,22.6,21.3,00.0,31.4,24.2,11.0,0000.0,0001.89,0001.38,0001.25
2023-01-03 15:25:00,,0816.7,5.01,0.00,22.6,21.3,00.0,31.4,24.2,11.0,0000.0,0001.91,0001.38,0001.24
2023-01-03 15:26:00,,0816.6,4.99,0.00,22.6,21.3,00.0,31.4,24.2,11.1,0000.0,0001.92,0001.38,0001.24
2023-01-03 15:27:00,,0816.5,5.02,0.00,22.6,21.3,00.0,31.4,24.2,11.1,0000.0,0002.84,0001.44,0001.22
2023-01-03 15:28:00,,0816.8,5.03,0.00,22.6,21.3,00.0,31.4,24.3,11.1,0000.0,0004.11,0001.52,0001.21
2023-01-03 15:29:00,,0816.6,5.00,0.00,22.6,21.3,00.0,31.4,24.3,11.2,0000.0,0004.28,0001.57,0001.21
2023-01-03 15:30:00,,0816.5,5.00,0.00,22.5,21.3,00.0,31.4,24.3,11.2,0000.0,0004.51,0001.62,0001.20
2023-01-03 15:31:00,,0816.5,5.00,0.00,22.6,21.3,00.0,31.4,24.3,11.2,0000.0,0004.94,0001.77,0001.22
2023-01-03 15:32:00,,0816.5,4.97,0.00,22.6,21.3,00.0,31.3,24.3,11.3,0000.0,0005.14,0001.84,0001.23
2023-01-03 15:33:00,,0816.5,5.07,0.00,22.6,21.3,00.0,31.4,24.3,11.4,0000.0,0005.16,0001.90,0001.24
2023-01-03 15:34:00,,0816.5,5.01,0.00,22.5,21.3,00.0,31.3,24.3,11.4,0000.0,0005.43,0001.94,0001.23
2023-01-03 15:35:00,,0816.5,5.00,0.00,22.6,21.3,00.0,31.3,24.3,11.4,0000.0,0006.78,0002.03,0001.22
2023-01-03 15:36:00,,0816.5,4.95,0.00,22.6,21.3,00.0,31.3,24.3,11.4,0000.0,0007.10,0002.11,0001.22
2023-01-03 15:37:00,,0816.5,5.03,0.00,22.6,21.3,00.0,31.3,24.3,11.4,0000.0,0007.85,0002.18,0001.22
2023-01-03 15:38:00,,0816.5,4.99,0.00,22.6,21.3,00.0,31.3,24.3,11.3,0000.0,0008.72,0002.29,0001.23
2023-01-03 15:39:00,,0816.6,5.07,0.00,22.6,21.3,00.0,31.3,24.3,11.3,0000.0,0007.90,0002.32,0001.25
2023-01-03 15:40:00,,0816.7,4.99,0.00,22.6,21.3,00.0,31.3,24.3,11.3,0000.0,0008.24,0002.39,0001.29
2023-01-03 15:41:00,,0816.8,4.99,0.00,22.6,21.3,00.0,31.3,24.3,11.3,0000.0,0009.44,0002.47,0001.33
2023-01-03 15:42:00,,0816.8,5.06,0.00,22.6,21.3,00.0,31.3,24.3,11.2,0000.0,0009.45,0002.42,0001.35
2023-01-03 15:43:00,,0816.7,4.97,0.00,22.6,21.3,00.0,31.3,24.3,11.1,0000.0,0010.06,0002.41,0001.38
2023-01-03 15:44:00,,0816.6,4.98,0.00,22.6,21.3,00.0,31.3,24.3,11.1,0000.0,0010.19,0002.42,0001.39
2023-01-03 15:45:00,,0816.6,4.99,0.00,22.6,21.3,00.0,31.3,24.3,11.0,0000.0,0010.44,0002.43,0001.41
2023-01-03 15:46:00,,0816.6,5.01,0.00,22.6,21.3,00.0,31.4,24.3,11.0,0000.0,0009.92,0002.43,0001.45
2023-01-03 15:47:00,,0816.6,5.04,0.00,22.5,21.4,00.0,31.4,24.3,11.0,0000.0,0009.79,0002.40,0001.49
2023-01-03 15:48:00,,0816.7,4.99,0.00,22.5,21.4,00.0,31.4,24.3,11.1,0000.0,0010.25,0002.39,0001.53
2023-01-03 15:49:00,,0816.6,4.97,0.00,22.6,21.4,00.0,31.4,24.3,11.1,0000.0,0009.72,0002.35,0001.56
2023-01-03 15:50:00,,0816.7,4.97,0.00,22.6,21.4,00.0,31.4,24.4,11.0,0000.0,0010.65,0002.30,0001.58
2023-01-03 15:51:00,,0817.0,5.00,0.00,22.6,21.4,00.0,31.4,24.4,11.0,0000.0,0011.09,0002.25,0001.57
2023-01-03 15:52:00,,0817.2,5.02,0.00,22.6,21.4,00.0,31.4,24.4,11.0,0000.0,0010.98,0002.23,0001.56
2023-01-03 15:53:00,,0817.2,5.01,0.00,22.6,21.4,00.0,31.4,24.3,11.0,0000.0,0010.97,0002.22,0001.54
2023-01-03 15:54:00,,0817.0,5.03,0.00,22.6,21.4,00.0,31.4,24.3,11.1,0000.0,0010.51,0002.18,0001.51
2023-01-03 15:55:00,,0817.0,4.97,0.00,22.6,21.4,00.0,31.4,24.4,11.1,0000.0,0010.22,0002.14,0001.48
2023-01-03 15:56:00,,0816.7,4.98,0.00,22.6,21.4,00.0,31.4,24.4,11.1,0000.0,0009.79,0002.02,0001.45
2023-01-03 15:57:00,,0816.8,4.99,0.00,22.6,21.4,00.0,31.4,24.4,11.1,0000.0,0009.83,0001.97,0001.41
2023-01-03 15:58:00,,0816.8,5.08,0.00,22.6,21.4,00.0,31.4,24.4,11.1,0000.0,0009.59,0001.91,0001.37
2023-01-03 15:59:00,,0816.8,5.03,0.00,22.7,21.4,00.0,31.4,24.4,11.1,0000.0,0008.89,0001.91,0001.33
